Location: Buisson
(44.2787°N, 4.9969°E)
Time: 06:41:05
(UTC+00:00)

PAYLOAD A - Pass Details

Date: 18 April 2021
Orbit: 691 x 832 km, 98.4° (Epoch: 06 May)

Event Time Altitude Azimuth Distance (km) Brightness Sun altitude
Rises 03:32:19 0° 12° (NNE) 3,300 8.0 -13.8°
Reaches altitude 10° 03:34:41 10° 13° (NNE) 2,346 7.1 -13.4°
Maximum altitude 03:39:52 86° 285° (WNW) 768 4.0 -12.6°
Drops below altitude 10° 03:44:48 10° 197° (SSW) 2,238 6.0 -11.8°
Enters shadow 03:45:41 - 197° (SSW) 2,594 6.3 -11.7°
